Погода в Барановичи

Погода в Барановичи : погода сейчас, прогноз погоды и архив. Всё, что Вы хотите узнать о погоде в Барановичи!

Хотите узнать прогноз погоды в Барановичи? Тогда Вам сюда: Погода в Барановичи

Поиск расширенной информации на нашем сайте:

Полезная информация: ворота промышленные

Другие новости

Новости СМИ2

Главная страница сайта

Новости сайта

02.10.2013

Напоминаем, что на нашем новом сайте вы можете получить высокодетализированные прогнозы погоды по пунктам России, СНГ и мира (включающие важные для авиации метеовеличины, такие как направление и скорость ветра, видимость, явления погоды, количество и форма облачности, нижняя и верхняя граница облачности), а также ознакомиться с разнообразными материалами по авиационной метеорологии и подборкой полезных ссылок на эту тему.

Сайт Метеоцентр.Азия посвящён разработке технологий оптимизации авиаметеорологического обслуживания, включая проектирование и перспективное создание нескольких автоматизированных авиаметеорологических систем:
- система выпуска высокодетальных прогностических карт явлений погоды для нижнего воздушного пространства по России и ближнему зарубежью;
- система верификации прогнозов TAF (выпускаемых синоптиками официальных АМСГ РФ и ближнего зарубежья) и AUTOTAF (выпускаемых сайтом Метеоцентр.Азия) - выявление ошибок, онлайн-сопоставление с фактической погодой METAR, автоматическое внесение коррективов в прогнозы при резком отклонении фактической погоды от прогноза, подсчёт оправдываемости прогнозов по элементам и в целом;
- система обработки, анализа и отображения авиаметеорологической информации для применения провайдерами метеорологической информации.

Рекомендуем: ремонт шпиндельных узлов

Погода в Барановичи - сегодня

Время (UTC), дата Ветер
(°,м/с) 
Видим.   Явления Облачность Т
(°С)
Тd
(°С)
f(%) Тe
(°С)
Pmin
(гПа)
dP
(гПа)
Po
(мм)
O2
(г/м3)
Тmin Tmax R s Состояние
почвы
15 21.01.17 200 (Ю) 5{10}  10 км    10/10 300 м 
[Frnb]
+1.2 +0.4 94 -2  1027.3  752  302           
18 21.01.17 300 (СЗ) 5{11}  10 км    9/9 600 м 
[Sc]
+1.1 -1.5 83 -2  1029.8  2.5  754  303    +1.4    14   
21 21.01.17 260 (З) 10 км    ясно 
-1.7 -2.9 91 -1  1031.6  1.5  755  307           
00 22.01.17 300 (СЗ) 10 км    9/9 600 м 
[Sc]
-1.4 -2.9 89 -3  1032.6  0.9  756  306           
03 22.01.17 250 (З) 10 км    9/9 600 м 
[Sc]
-0.9 -2.4 90 1033  0.5  756  306        14   
06 22.01.17 240 (ЮЗ) 10 км    9/9 600 м 
[Sc]
-0.4 -1.6 92 -2  1032.5  -0.5  756  305  -4      14  равномерный
мокрый или
старый снег
100% 
09 22.01.17 210 (ЮЗ) 1300 м  дымка  10/10 100 м 
[Frnb]
-0.6 -1.5 94 -2  1033.1  0.6  756  306           
12 22.01.17 230 (ЮЗ) 6000 м  дымка  10/10 100 м 
[Frnb]
-0.1 -1.3 92 -2  1032.1  -0.9  756  305           
15 22.01.17 220 (ЮЗ) 3300 м  дымка  10/10 100 м 
[Frnb]
-0.5 -1.1 96 -1  1031.3  -0.8  755  305           
18 22.01.17 200 (Ю) 1200 м  дымка  10/10 100 м 
[Frnb]
-1.3 -1.6 98 -4  1031.2  -0.2  755  306    -0.1    13   
21 22.01.17 200 (Ю) 0700 м  туман  ?/?  
-1.6 -1.6 100 -4  1030.4  -0.8  754  306           
00 23.01.17 210 (ЮЗ) 0700 м  туман  ?/?  
-1.7 -1.7 100 -4  1029.3  -1.1  753  306           
03 23.01.17 190 (Ю) 0300 м  переохл. туман [диам. гололёда 1 мм]  ?/?  
-1.7 -1.7 100 -3  1027.8  -1.5  752  305        13   
06 23.01.17 120 (ЮВ) 1500 м  дымка{туман} [диам. гололёда 1 мм]  10/10 100 м 
[Frnb]
-2 -2.3 98 -5  1026.4  -1.3  751  305  -2.1      13  равномерный
мокрый или
старый снег
100% 
09 23.01.17 200 (Ю) 3500 м  дымка [диам. гололёда 1 мм]  10/10 100 м 
[Frnb]
-2.1 -2.4 98 -4  1025.9  -0.5  751  305           
12 23.01.17 210 (ЮЗ) 3600 м  дымка [диам. гололёда 1 мм]  10/10 100 м 
[Frnb]
-2 -2.6 96 -5  1023.9  -2  749  305           
15 23.01.17 220 (ЮЗ) 5000 м  дымка [диам. гололёда 1 мм]  10/10 100 м 
[Frnb]
-1.6 -2.1 96 -4  1022.6  -1.2  749  304           
18 23.01.17 220 (ЮЗ) 6000 м  дымка [диам. гололёда 0 мм]  10/10 100 м 
[Frnb]
-2.3 -3.5 91 -4  1021.3  -1.3  748  304    -1.4    13   
21 23.01.17 210 (ЮЗ) 8000 м  дымка  10/10 200 м 
[Frnb]
-2.2 -3.4 91 -4  1020.8  -0.5  747  304           
00 24.01.17 250 (З) 7000 м  дымка  10/10 200 м 
[Frnb]
-2.9 -4.2 91 -5  1019.8  -1  746  304           
03 24.01.17 230 (ЮЗ) 5000 м  дымка  10/10 200 м 
[Frnb]
-3.4 -4.2 94 -5  1019.3  -0.6  746  305        13   
06 24.01.17 240 (ЮЗ) 3000 м  дымка  10/10 200 м 
[Frnb]
-2.7 -3.7 93 -4  1018.9  -0.3  746  304  -3.6      13  равномерный
мокрый или
старый снег
100% 
09 24.01.17 260 (З) 3500 м  дымка  10/10 300 м 
[Frnb]
-1.4 -2.5 92 -3  1019.8  747  303           
12 24.01.17 270 (З) 3000 м  дымка  10/10 200 м 
[Frnb]
-0.3 -1.8 90 -2  1019.9  0.2  747  301           
15 24.01.17 270 (З) 3500 м  дымка  10/10 300 м 
[Frnb]
+0.1 -1.3 90 -2  1020.3  0.5  747  301           
Время (UTC), дата Ветер
(°,м/с) 
Видим.   Явления Облачность Т
(°С)
Тd
(°С)
f(%) Тe
(°С)
Pmin
(гПа)
dP
(гПа)
Po
(мм)
O2
(г/м3)
Тmin Tmax R s Состояние
почвы

Для получения пояснительной информации подведите курсор к названию столбца.

ПОГОДА в Барановичи - архив

Всё, что Вы хотите узнать о погоде в Барановичи - удобно и подробно!

Выберите нужную дату (начиная с 1 января 2015* года) и нажмите кнопку "Найти".
Будут отображены архивные сводки погоды по пункту Барановичи, начиная с указанной даты.


Отображать данные в формате CSV (для использования в таблицах Excel)


Внимание! Наш архив погоды предназначен исключительно для личного некоммерческого использования в познавательных целях. Если Вам необходимы официальные справки о состоянии погоды (для производственных, юридических, коммерческих и т.п. целей), обращайтесь в органы Росгидромета.

*Примечание: данная дата относится к архиву по метеостанциям СССР (Россия, СНГ, Балтия).
Архив по метеостанциям Зарубежной Европы и Азии (кроме Китая) хранится 10 дней, по другим регионам земного шара (Китай, Африка, Америка, Австралия, Океания) - 1 день.

Барановичи - район местоположения метеостанции


Название, широта, долгота, высота метеостанции:
Барановичи 53.1°ш. 26°д. 193 м над ур. моря [Беларусь]

Дополнительная информация

В oтличие oт бoльшинства пoгoдных сайтoв мы публикуем пoдрoбную метеoинфoрмацию в детальнoм прoфессиoнальнoм фoрмате.

Характеристики температуры и влажнoсти вoздуха измеряются на высoте 2 м в тени вдали oт зданий и деревьев.
Скoрoсть ветра измеряется на высoте 10 м (на урoвне рoста челoвека скoрoсть ветра ниже в 1.5-2 раза). Если метеoстанция нахoдится в гoрoде или в лесу, тo скoрoсть ветра занижена на 2-4 м/с пo сравнению с oткрытым местoм. Скoрoсть ветра над акватoриями крупных рек и oзёр, а также на вершинах хoлмoв на 2-5 м/с выше, чем в oбычных услoвиях.
Атмoсфернoе давление в разных тoчках местнoсти мoжет значительнo oтличаться oт давления на метеoстанции, в зависимoсти oт услoвий рельефа (при пoдъёме на 10 м давление пoнижается примернo на 1 мм рт.ст.).